Погода в Колпне

Россия / Орловская область     52°13′32″N   37°02′10″E
темп.,
°C
ветер,
м/с
пор.,
м/с
влажн.,
%
обл.,
%
осадки,
мм/ч
давл.,
гПа
погр.,
м
29 июля, чт
чт2900:00+18юз338340 0.0 101238
03:00+17юз34875 0.0 101259
06:00+17з35856 0.0 1011118
09:00+24з3465100 0.0 1010449
12:00+27з56495 0.8 10101679
15:00+29з5841100 0.8 10092642
18:00+27сз355318 0.0 1008492
21:00+23ююз115553 0.0 100811
30 июля, пт
пт3000:00+21ю346739 0.0 100855
03:00+21ююз376333 0.0 1007133
06:00+20зсз337565 0.2 100776
09:00+23зсз346929 0.4 1008562
12:00+27з45569 0.0 10081323
15:00+28з564841 0.0 10071994
18:00+25сз486195 0.0 1007537
21:00+21зсз336817 0.0 100832
31 июля, сб
сб3100:00+19сз34730 0.0 100963
03:00+17зсз33790 0.0 101035
06:00+17зсз23761 0.0 101048
09:00+24зюз34525 0.0 1011487
12:00+28з57400 0.0 10102271
15:00+29зюз683710 0.0 10102679
18:00+28з574233 0.0 1010944
21:00+21сз22599 0.0 101111
1 августа, вс
вс100:00+20ю116398 0.0 101111
03:00+19ю33645 0.0 101229
06:00+19ю36685 0.0 1012117
09:00+26ююз57480 0.0 1011410
12:00+31ююз68360 0.0 10112294
15:00+32зюз683138 0.0 10102844
18:00+29зсз3643100 0.0 1009248
21:00+23в3357100 0.0 101039
2 августа, пн
пн200:00+21ссв33645 0.0 101025
03:00+19св22690 0.0 101015
06:00+19юв11674 0.0 100913
09:00+27ю464756 0.0 1008413
12:00+31ююз61036100 0.0 10072045
15:00+32юз5103554 0.0 10062487
18:00+21вюв46718 3.9 100582
21:00+20ююв7158494 4.2 1005320